Location: Bannatyne
(13.0833°N, 59.5333°W)
Time: 05:14:43
(UTC+00:00)

deb Explorer IX - Pass Details

Date: 02 February 2020
Orbit: 549 x 1099 km, 38.8° (Epoch: 19 February)

Event Time Altitude Azimuth Distance (km) Brightness Sun altitude
Rises 06:50:47 0° 293° (WNW) 3,894 - -51.5°
Reaches altitude 10° 06:53:55 10° 283° (WNW) 2,913 - -50.7°
Maximum altitude 07:00:03 31° 224° (SW) 1,713 - -49.3°
Drops below altitude 10° 07:05:45 10° 164° (SSE) 2,677 - -47.9°
Exits shadow 07:07:40 - 156° (SSE) 3,258 ? -47.4°
Sets 07:08:32 0° 154° (SSE) 3,536 ? -47.2°
